Погода в Лонг-Бич

США     33°48′22″N   118°07′10″W
темп.,
°C
ветер,
м/с
пор.,
м/с
влажн.,
%
обл.,
%
осадки,
мм/ч
давл.,
гПа
погр.,
м
21 октября, чт
чт2123:00+17зюз22616 0.0 1018177
02:00+17зюз126842 0.0 1018136
05:00+16зюз016971 0.0 101860
08:00+16ю117095 0.0 101992
11:00+19юз215831 0.0 1019291
14:00+21зюз325015 0.0 1017406
17:00+20зюз435435 0.0 1016325
20:00+19юз226098 0.0 1018148
22 октября, пт
пт2223:00+18юз22715 0.0 1017138
02:00+17зюз22841 0.0 1016152
05:00+17юв11845 0.0 101565
08:00+17юз2284100 0.0 1016157
11:00+19ю22680 0.0 1015383
14:00+20юз436651 0.0 1014487
17:00+19юз4465100 0.0 1012467
20:00+18юз4483100 0.0 1013358
23 октября, сб
сб2323:00+17юз3488100 0.0 1013400
02:00+17ююз3483100 0.0 1012504
05:00+17ююз4480100 0.0 1011572
08:00+16ю3472100 0.0 1012543
11:00+18ю346316 0.0 1012836
14:00+19ююз43591 0.0 1010856
17:00+17ююз326598 0.0 1010670
20:00+17ююв33705 0.0 1011506
24 октября, вс
вс2423:00+17ююв3472100 0.0 1011517
02:00+17юв4571100 0.0 1010516
05:00+16юв2472100 0.0 1011483
08:00+17юв247174 0.0 1012460
11:00+18ю326479 0.0 1013827
14:00+19юз3264100 0.0 1012670
17:00+18юз4369100 0.0 1011457
20:00+17юз3373100 0.0 1013310
25 октября, пн
пн2523:00+17юз2277100 0.0 1013273
02:00+17ююз23825 0.0 1013294
05:00+17ююв5883100 0.0 1012584
08:00+17ю71089100 1.4 1012726
11:00+17ююз71094100 5.3 1013668
14:00+19зюз56756 0.6 1013719
17:00+18зюз67690 0.6 1013677
20:00+17зюз45730 0.0 1015462